Tracking 28790 objects as of 19-Apr-2024
HD Live streaming from Space Station
objects crossing your sky now

CZ-6A DEB

Track CZ-6A DEB now!
10-day predictions


NORAD ID: 54352
Int'l Code: 2022-151CX
Perigee: 600.4 km
Apogee: 843.8 km
Inclination: 99.1 °
Period: 99.1 minutes
Semi major axis: 7093 km
RCS: Unknown
Launch date: November 11, 2022
Source: People's Republic of China (PRC)
Launch site: Taiyaun Space Center, China (TSC)

Note: This is SATELLITE DEBRIS
Your satellite tracking list
Your tracking list is empty




NASA's NSSDC Master Catalog

Two Line Element Set (TLE):
1 54352U 22151CX  24110.12419492  .00026941  00000-0  53337-2 0  9995
2 54352  99.0598 164.3782 0171581 192.7015 166.9829 14.53282682 75217
Source of the keplerian elements: AFSPC